West Paducah, KY

6:57 AM CDT on September 25, 2016 (GMT -0500)
Barkley Regional

Weather History for KPAH - February, 2014

Change the Weather History Date:

Sunday, February 9, 2014

  Actual Average Record
Temperature  
Mean Temperature 29 °F 38 °F  
Max Temperature 33 °F 47 °F 72 °F (1965)
Min Temperature 24 °F 28 °F -1 °F (1979)
Degree Days  
Heating Degree Days 36 27  
Month to date heating degree days 346 255  
Since 1 July heating degree days 3083 2828  
Cooling Degree Days 0 0  
Month to date cooling degree days 0 0  
Year to date cooling degree days 0 0  
Moisture  
Dew Point 26 °F    
Average Humidity 86    
Maximum Humidity 100    
Minimum Humidity 72    
Precipitation  
Precipitation T in 0.14 in 2.35 in (1965)
Month to date precipitation 2.16 1.27  
Year to date precipitation 4.19 4.95  
Snow  
Snow T in 0.10 in 2.80 in (2003)
Month to date snowfall 6.6 1.1  
Since 1 July snowfall 12.9 6.4  
Snow Depth 5.00 in    
Sea Level Pressure  
Sea Level Pressure 30.20 in    
Wind  
Wind Speed 7 mph (North)    
Max Wind Speed 17 mph    
Max Gust Speed 22 mph    
Visibility 5 miles    
Events Snow    
T = Trace of Precipitation, MM = Missing Value Source: NWS Daily Summary

Daily Weather History Graph

Daily Weather History Graph

Search for Another Location

Airport or City:

Trip Planner

Search our weather history database for the weather conditions in past years. The results will help you decide how hot, cold, wet, or windy it might be!

Date:

Astronomy

Feb. 09, 2014 Rise Set
Actual Time 6:50 AM CST 5:28 PM CST
Civil Twilight 6:23 AM CST 5:55 PM CST
Nautical Twilight 5:52 AM CST 6:26 PM CST
Astronomical Twilight 5:22 AM CST 6:56 PM CST
Moon 1:11 PM CST (2/9) 2:52 AM CST (2/9)
Length of Visible Light 11h 32m
Length of Day
10h 38m
Waxing Gibbous, 77% of the Moon is Illuminated
Feb 9
Waxing Gibbous
Feb 14
Full
Feb 22
Last Quarter
Mar 1
New
Mar 8
First Quarter

Hourly Weather History & Observations

Time (CST) Temp. Windchill Dew Point Humidity Pressure Visibility Wind Dir Wind Speed Gust Speed Precip Events Conditions
12:04 AM 30.9 °F - 28.9 °F 92% 30.16 in 1.2 mi Calm Calm - 0.00 in Snow Light Snow
12:31 AM 30.9 °F - 28.9 °F 92% 30.14 in 1.8 mi Calm Calm - 0.00 in Snow Light Snow
12:39 AM 30.9 °F - 28.9 °F 92% 30.15 in 2.0 mi Calm Calm - 0.00 in   Overcast
12:53 AM 30.9 °F - 28.9 °F 92% 30.16 in 2.0 mi Calm Calm - 0.00 in   Overcast
1:53 AM 30.9 °F - 28.9 °F 92% 30.15 in 2.0 mi Calm Calm - N/A   Overcast
2:20 AM 30.9 °F - 28.9 °F 92% 30.13 in 1.8 mi Calm Calm - N/A   Overcast
2:53 AM 30.9 °F 27.5 °F 30.0 °F 96% 30.15 in 1.2 mi WNW 3.5 mph - N/A   Overcast
3:53 AM 30.0 °F 26.5 °F 28.9 °F 96% 30.12 in 1.2 mi North 3.5 mph - N/A   Overcast
4:53 AM 30.0 °F 25.2 °F 28.9 °F 96% 30.15 in 1.8 mi NW 4.6 mph - N/A   Overcast
5:01 AM 30.0 °F 24.1 °F 28.9 °F 96% 30.15 in 2.0 mi NW 5.8 mph - N/A   Overcast
5:13 AM 30.0 °F 24.1 °F 28.0 °F 92% 30.14 in 2.5 mi NW 5.8 mph - N/A   Overcast
5:36 AM 30.0 °F 23.2 °F 28.0 °F 92% 30.14 in 3.0 mi North 6.9 mph - N/A   Overcast
5:53 AM 30.0 °F 26.5 °F 28.0 °F 92% 30.16 in 4.0 mi NNW 3.5 mph - N/A   Overcast
6:53 AM 30.0 °F 26.5 °F 28.0 °F 92% 30.17 in 3.0 mi NW 3.5 mph - N/A   Overcast
7:04 AM 30.0 °F - 28.0 °F 92% 30.16 in 2.0 mi Calm Calm - N/A   Overcast
7:43 AM 30.0 °F - 28.9 °F 96% 30.16 in 1.8 mi Calm Calm - N/A   Overcast
7:53 AM 30.0 °F - 28.0 °F 92% 30.19 in 1.8 mi Calm Calm - N/A   Overcast
8:00 AM 30.0 °F 26.5 °F 28.0 °F 92% 30.19 in 2.0 mi WNW 3.5 mph - N/A   Overcast
8:24 AM 30.0 °F 26.5 °F 28.0 °F 92% 30.19 in 3.0 mi North 3.5 mph - N/A   Overcast
8:53 AM 30.0 °F 25.2 °F 28.0 °F 92% 30.20 in 4.0 mi North 4.6 mph - N/A   Overcast
9:19 AM 30.9 °F 25.2 °F 28.0 °F 89% 30.19 in 6.0 mi North 5.8 mph - N/A   Overcast
9:53 AM 30.9 °F 26.2 °F 27.0 °F 85% 30.21 in 7.0 mi North 4.6 mph - N/A   Overcast
10:07 AM 30.9 °F 24.3 °F 27.0 °F 85% 30.20 in 7.0 mi North 6.9 mph - N/A   Overcast
10:16 AM 30.9 °F 26.2 °F 27.0 °F 85% 30.20 in 7.0 mi North 4.6 mph - N/A   Overcast
10:25 AM 32.0 °F 25.6 °F 28.0 °F 85% 30.20 in 7.0 mi North 6.9 mph - N/A   Overcast
10:53 AM 32.0 °F 25.6 °F 28.0 °F 85% 30.19 in 7.0 mi NNE 6.9 mph - N/A   Overcast
11:21 AM 32.0 °F 24.2 °F 27.0 °F 82% 30.19 in 8.0 mi North 9.2 mph - N/A   Overcast
11:41 AM 32.0 °F 25.6 °F 27.0 °F 82% 30.17 in 8.0 mi North 6.9 mph - N/A   Overcast
11:53 AM 32.0 °F 25.6 °F 27.0 °F 82% 30.19 in 7.0 mi North 6.9 mph - N/A   Overcast
12:53 PM 30.9 °F 22.2 °F 27.0 °F 85% 30.17 in 6.0 mi NNE 10.4 mph - N/A   Overcast
1:51 PM 32.0 °F 27.5 °F 26.6 °F 80% 30.19 in 8.0 mi NNE 4.6 mph - N/A   Overcast
1:53 PM 33.1 °F 30.0 °F 26.1 °F 75% 30.19 in 8.0 mi NNE 3.5 mph - N/A   Overcast
2:53 PM 32.0 °F 23.6 °F 25.0 °F 75% 30.17 in 8.0 mi NE 10.4 mph - N/A   Overcast
3:53 PM 32.0 °F 26.4 °F 25.0 °F 75% 30.24 in 8.0 mi NNW 5.8 mph - N/A   Overcast
4:53 PM 32.0 °F 24.2 °F 24.1 °F 73% 30.23 in 9.0 mi NNE 9.2 mph - N/A   Overcast
5:53 PM 30.9 °F 20.2 °F 24.1 °F 76% 30.25 in 9.0 mi North 15.0 mph - N/A   Overcast
6:53 PM 28.9 °F 17.3 °F 21.9 °F 75% 30.25 in 8.0 mi North 16.1 mph 21.9 mph N/A   Overcast
7:53 PM 27.0 °F 15.6 °F 21.0 °F 78% 30.27 in 8.0 mi NNE 13.8 mph - N/A   Scattered Clouds
8:42 PM 27.0 °F 17.3 °F 21.0 °F 78% 30.27 in 7.0 mi North 10.4 mph - N/A   Mostly Cloudy
8:53 PM 26.1 °F 16.2 °F 21.0 °F 81% 30.29 in 7.0 mi North 10.4 mph - N/A   Mostly Cloudy
9:53 PM 26.1 °F 16.8 °F 19.9 °F 78% 30.31 in 8.0 mi NNE 9.2 mph - N/A   Mostly Cloudy
10:06 PM 25.0 °F 14.8 °F 19.9 °F 81% 30.29 in 8.0 mi North 10.4 mph - N/A   Overcast
10:53 PM 25.0 °F 14.2 °F 19.9 °F 81% 30.30 in 8.0 mi NNE 11.5 mph - N/A   Overcast
11:53 PM 24.1 °F 13.1 °F 19.0 °F 81% 30.29 in 7.0 mi NNE 11.5 mph - N/A   Overcast